STARLINK-2515, 48323

Orbit data source: Space-Track

STARLINK-2515, 48323 is a payload satellite owned by SpaceX/Seattle (US) in LEO that was launched on Thu, 29 Apr 2021 UTC via an FALCON 9 launch vehicle from the Air Force Eastern Test Range (AFETR). Payload-class satellites include a variety of spacecraft equipped with specific instruments for various scientific and technological missions. These include communications satellites like Starlink; space stations such as the ISS; scientific satellites like the Hubble; Earth observation satellites from companies like Planet Labs, Umbra, and HawkEye 360; GPS; miniature CubeSats for education and research; and military/defense satellites.

Loading next visibility...
Identifier
48323, 2021-036AZ
Orbit
LEO
Country
Flag of USUS
Related business
Manufacturer
SpaceX/Seattle
Mission
Operational Commercial Communications
Bus & Motor
STARLINK, Unknown motor
Mass
260 kg wet, ~248 kg dry
Launch date (UTC)
2021-04-29 (4 years ago)
Launch vehicle
FALCON 9
Launch site
Air Force Eastern Test Range (AFETR)
Object type
Payload
Rocket body
Debris
Shape & HBR
Box + 1 Pan, 10.1 m
Radar Cross Section
13.562 m², Large (>1 m²)

Expand to show TLE details & history
Last TLE update: 7 hours ago

TLE from 7 hours ago
0 STARLINK-2515
1 48323U 21036AZ  25291.26044423 -.00000280  00000-0  66378-7 0  9994
2 48323  53.0545  21.0092 0001366  72.2978 287.8160 15.06398339246561
Epoch: 2025-10-18T06:15Z
TLE epoch observation values (Epoch: 2025-10-18T06:15:02.381Z)
Latitude
-0.00002°
Longitude
-99.74475°
Altitude
547.806 km
Speed
7.589 km/s
True Right ascension
01h 24m 02s
True Declination
0° 00' 00"
Sunlit
Object was in full shadow at epoch
Visualization orbit readout
Latitude
Unknown
Longitude
Unknown
Altitude
Unknown
Speed
Unknown
Apparent Right ascension
Unknown
Apparent Declination
Unknown
Sunlit
N/A
Visualization observer readout
Local Sidereal Time
07:41:42
Azimuth
Unknown
Elevation
Unknown
Doppler factor
Unknown
Orbital elements
Apogee altitude
548.433 km
Perigee altitude
546.541 km
Semi-major axis
6,925.624 km
Eccentricity
0.00014
Inclination
53.0545°
RAAN
21.0092°
Arg. of periapsis
72.2978°
True anomaly
287.8011°
Mean anomaly
287.816°
Eccentric anomaly
287.80855°
Mean motion
3.76578 °/min
Orbital period
95.6 mins
BSTAR
6.6378e-8
Loading maneuver chart data...
Computing Atmospheric mass density...
Loading historical data...
Loading historical data...
Loading historical data...
Loading historical data...
Loading historical data...
Loading historical data...
Loading historical data...

Documentation

Showing up to 5 results
|